sat.trackr.live / text

‹ back to catalog

STARLINK-2472

NORAD 48130 · 2021-027AQ

PAYLOAD ACTIVE UNKNOWN

§ Identity

Operator
Country
US
Launch date
2021-04-07
Launch site
AFETR
Launch vehicle
Mass (kg)
RCS (m²)

Purposes: comms

External: N2YO · Heavens-Above · Gunter

§ Orbital elements

Epoch: 2026-09-19T19:30:17.149536Z

Period
94.01 min
Inclination
53.1627°
Eccentricity
0.0001723
Mean motion
15.31699290 rev/d
Perigee alt
469.6 km
Apogee alt
471.9 km
Semi-major
6,848.9 km
B*
4.0342e-5
RAAN
344.7703°
Arg perigee
79.3794°
Mean anomaly
280.7401°
Rev number
30,222

§ Raw data

STARLINK-24721 48130U 21027AQ  26262.81269849  .00000887  00000+0  40342-4 0  99922 48130  53.1627 344.7703 0001723  79.3794 280.7401 15.31699290302228

JSON: /api/v1/satellites/48130 · /tle

For live sub-satellite position, see the globe view (requires WebGL).

§ Visibility from observer

Set your observer location to see the next 7 days of passes ≥ 10°. The values pass through the URL so the page stays shareable.

No JS? Fill the form by hand. The geolocation button needs JavaScript.